Regional Weather Roundup
Issued by NWS

Home | Current Version | Previous Version | Text Only | Print | Product List | Glossary On
Versions: 1 2 3 4 5 6 7 8 9 10 11 12 13 14 15 16 17 18 19 20 21 22 23 24 25 26 27 28 29 30 31 32 33 34 35 36 37 38 39 40 41 42 43 44 45 46 47 48 49 50
000
ASUS43 KDMX 232306
RWRIA

WEATHER ROUNDUP FOR IOWA
NATIONAL WEATHER SERVICE DES MOINES IA
600 PM CDT SUN APR 23 2017

NOTE: "FAIR" INDICATES FEW OR NO CLOUDS BELOW 12,000 FEET WITH NO
SIGNIFICANT WEATHER AND/OR OBSTRUCTIONS TO VISIBILITY.

* - THESE STATIONS ARE NOT NWS STATIONS...THUS NOT UNDER NWS
QUALITY CONTROL.  THEY ALSO DO NOT REPORT WEATHER SUCH
AS PRECIPITATION OR FOG.

IAZ001>003-012>014-020>022-031>034-043>046-240000-
   NORTHWEST IOWA

CITY           SKY/WX    TMP DP  RH WIND       PRES   REMARKS
CARROLL *      MOSUNNY   70  27  19 S17       29.94F
CHEROKEE *     CLOUDY    69  32  25 S13G23    29.90F
DENISON *      PTSUNNY   70  28  21 SW17G25   29.95F
LE MARS *      MOSUNNY   72  28  20 S18G29    29.87F
ORANGE CITY *  CLOUDY    70  32  24 S18G30    29.86F
SHELDON *      PTSUNNY   70  27  19 S23       29.85F
SIOUX CITY     SUNNY     72  26  18 S22G32    29.88F
SPENCER        MOSUNNY   69  28  21 MISG      29.90F
STORM LAKE *   CLOUDY    68  27  21 SW22      29.93F
$$

IAZ055>058-069>071-079>083-090>094-240000-
   SOUTHWEST IOWA

CITY           SKY/WX    TMP DP  RH WIND       PRES   REMARKS
ATLANTIC *     SUNNY     70  28  21 S17       29.96F
AUDUBON *      CLOUDY    70  21  16 S16       29.97F
CLARINDA *     SUNNY     70  32  24 S12G18    30.00F
COUNCIL BLFS * MOSUNNY   70  28  21 S17G23    29.95F
CRESTON *      MOSUNNY   68  32  26 SW15G21   30.01S
HARLAN  *      CLOUDY    70  27  19 S17G23    29.98F
LAMONI         CLOUDY    69  33  26 S12       30.01F
RED OAK *      SUNNY     72  28  20 S20       29.97F
SHENANDOAH *   SUNNY     72  28  20 S17G23    29.97F
$$

IAZ047>049-059>061-072>074-084-240000-
   CENTRAL IOWA

CITY           SKY/WX    TMP DP  RH WIND       PRES   REMARKS
AMES           SUNNY     68  32  26 S13       29.97F
ANKENY *       SUNNY     70  32  24 S8        29.99F
BOONE *        MOSUNNY   72  27  18 SW9G20    29.96F
CHARITON *     SUNNY     70  32  24 S12       30.01S
DES MOINES     CLOUDY    70  29  21 S12       29.99F
GRINNELL*      SUNNY     70  26  19 SW13      30.01F
KNOXVILLE *    SUNNY     70  30  23 S10       29.99F
MARSHALLTOWN   SUNNY     70  33  25 S15       29.98F
NEWTON *       SUNNY     70  30  23 S9        29.99S
PELLA *        SUNNY     71  29  21 SW6       30.01F
PERRY *          N/A     71  23  16 SW15      29.98S
$$

IAZ004>006-015-016-023>025-035-036-240000-
   NORTH CENTRAL IOWA

CITY           SKY/WX    TMP DP  RH WIND       PRES   REMARKS
ALGONA *       PTSUNNY   70  25  18 SW20G29   29.93F
CLARION *      MOSUNNY   72  25  17 SW17G25   29.95F
ESTHERVILLE    CLOUDY    68  28  22 SW18      29.90F
FORT DODGE *   PTSUNNY   70  28  21 SW13      29.96F
MASON CITY     PTSUNNY   70  26  19 SW14      29.96F
FOREST CITY *    N/A     68  28  22 SW12      29.94F
WEBSTER CITY * MOSUNNY   72  25  17 SW15G24   29.94F
IOWA FALLS *     N/A     71  28  20 S14G20    29.99S
$$

IAZ007>011-017>019-026>030-037>042-050>054-066-240000-
   NORTHEAST IOWA

CITY           SKY/WX    TMP DP  RH WIND       PRES   REMARKS
CEDAR RAPIDS   CLOUDY    69  29  22 S10       30.00S
CHARLES CITY * SUNNY     72  27  18 SW8G15    29.97F
DECORAH *      CLOUDY    70  27  19 VRB7G16   29.97F
DUBUQUE        SUNNY     69  34  27 SW6       30.02R
MONTICELLO *   SUNNY     72  30  21 SW9       30.00S
OELWEIN *      SUNNY     70  28  21 SW13      29.99S
WATERLOO       SUNNY     71  29  21 S14       29.97F
$$

IAZ064-065-067-068-078-240000-
   EAST CENTRAL IOWA

CITY           SKY/WX    TMP DP  RH WIND       PRES   REMARKS
DAVENPORT      SUNNY     71  29  21 VRB7      30.02S
IOWA CITY      CLOUDY    72  31  22 VRB6      30.02F
MT. PLEASANT * SUNNY     72  28  19 SW6       30.02S
MUSCATINE *    SUNNY     72  34  25 SE5       30.02S
QUAD CITIES    SUNNY     71  29  21 CALM      30.01F
$$

IAZ062-063-075>077-085>089-095>099-240000-
   SOUTHEAST IOWA

CITY           SKY/WX    TMP DP  RH WIND       PRES   REMARKS
BURLINGTON     SUNNY     70  29  21 VRB5      30.02F
FAIRFIELD *    SUNNY     70  30  23 SE6       30.02S
FORT MADISON * SUNNY     73  30  20 SE5       30.03F
KEOKUK *       SUNNY     70  28  21 SE5       30.02F
OSKALOOSA *      N/A     71  29  20 SW6       30.02S
CENTERVILLE *    N/A     70  32  24 SW3       30.03S
OTTUMWA        SUNNY     71  30  21 S12       30.01S
WASHINGTON *   SUNNY     72  28  20 SW6       30.03S
$$

ABBREVIATIONS USED IN REMARKS
   TC - TEMPERATURES IN CELSIUS
  WCI - WIND CHILL INDEX
   HX - HEAT INDEX
  VSB - VISIBILITY
$$





USA.gov is the U.S. government's official web portal to all federal, state and local government web resources and services.